Location: Lac de la Montagne noire
(46.1952°N, 74.2701°W)
Time: 08:50:24
(UTC-04:00)

Envisat - Visible Passes

Search period start: 16 October 2019 00:00
Search period end: 26 October 2019 00:00
Orbit: 764 x 766 km, 98.1° (Epoch: 16 October)

Date Brightness Start Highest point End Pass type
(mag) Time Alt. Az. Time Alt. Az. Time Alt. Az.
16 Oct 6.6 06:26:53 10° ENE 06:28:38 12° E 06:30:24 10° ESE visible
16 Oct 3.8 19:20:29 10° S 19:25:27 56° W 19:30:28 10° NNW visible
17 Oct 3.0 18:43:38 10° SSE 18:48:40 71° ENE 18:53:44 10° N visible
17 Oct 5.9 20:25:09 10° SW 20:28:13 16° W 20:31:18 10° NW visible
18 Oct 4.8 19:46:32 10° SSW 19:51:05 33° W 19:55:40 10° NNW visible
19 Oct 3.3 19:09:07 10° S 19:14:10 70° WSW 19:19:16 10° NNW visible
20 Oct 3.1 18:32:29 10° SSE 18:37:26 57° ENE 18:42:25 10° N visible
20 Oct 5.6 20:13:09 10° SW 20:16:50 20° W 20:20:31 10° NW visible
21 Oct 6.2 06:39:57 10° NE 06:43:05 16° E 06:46:13 10° SE visible
21 Oct 4.4 19:34:58 10° SSW 19:39:45 41° W 19:44:34 10° NNW visible
22 Oct 3.0 18:57:48 10° SSE 19:02:53 86° WSW 19:08:00 10° NNW visible
22 Oct 6.2 20:41:03 10° WSW 20:42:40 11° W 20:44:18 10° WNW visible
23 Oct 3.3 18:21:24 10° SE 18:26:13 46° ENE 18:31:04 10° N visible
23 Oct 5.3 20:01:20 10° SSW 20:05:27 25° W 20:09:36 10° NW visible
24 Oct 6.4 06:29:25 10° ENE 06:31:41 13° E 06:33:56 10° ESE visible
24 Oct 3.9 19:23:31 10° S 19:28:27 51° W 19:33:25 10° NNW visible
25 Oct 2.9 18:46:34 10° SSE 18:51:38 77° ENE 18:56:44 10° N visible
25 Oct 6.0 20:28:29 10° WSW 20:31:15 15° W 20:34:01 10° NW visible
